map of CTA home
CTA - Airport
Location
City:  Catania, Sicily, Italy
Name:Catania-Fontanarossa Vincenzo Bellini
ICAO:LICC
IATA:CTA

Details
Type:Airport (Aerodrome, Airfield)
Use:Public/Civil, International (customs port of entry)
Latitude:3728'00"N (37.466781)
Longitude:1503'59"E (15.066400)
Datum:WGS 1984
Elevation:39 ft (12 m)
Variation:3.23E (WMM2015 magnetic declination)
0.10 annual change
Runways:1
Longest:7989 × 148 ft (2435 × 45 m), paved

Time
Time Zone:UTC+1 (DST+2)
Local Time:

Weather
METAR:LICC 200720Z 25007KT CAVOK 09/07 Q1009
TAF:LICC 200500Z 2006/2106 27010KT 9999 SCT040 SCT060
TEMPO 2006/2009 RA
TEMPO 2015/2018 SHRA
BECMG 2018/2020 VRB05KT
TEMPO 2102/2106 4000 RA

Related Locations
Nearby:
Farthest:CHT: 11691 mi / 18816 km
Waitangi [Tuuta], CIT, NZ

Find:

   beyond  
but within

Other Information
Maps:
NOTAMs:
Links:
Sources:

  
flag of Italy
flag of Sicily
  

Sectional Chart

Flight Planning
at skyvector.com

Satellite Image

Google Maps Satellite view

 

Copyright © 2004-2018 Karl L. Swartz. All rights reserved.
The Great Circle Mapper name and logo are trademarks of the Great Circle Mapper.
All other trademarks mentioned herein belong to their respective owners.
Please see credits for attibutions and further copyright information.

  Follow gcmap on Facebook Follow gcmap on Twitter Follow gcmap on Google+ GCmap on LinkedIn

hCard Microformat

Geo Microformat